PBO Station Position Time Series. Reference Frame : NAM14
Format Version,1.1.0
4-character ID,P376
Station name,EolaResvr_OR2004
Begin Date, 2004-10-09
End Date, 2019-10-07
Release Date, 2019-10-08
Reference position, 44.9412028179 North Latitude, -123.1022666377 East Longitude, 180.87043 meters elevation,
Date, North (mm), East (mm), Vertical (mm), North Std. Deviation (mm), East Std. Deviation (mm),              Vertical Std. Deviation (mm), Quality,
2004-10-09,0.00, 0.00, 0.00, 2.20, 1.64, 7.37, repro,
2004-10-10,-0.85, -1.93, -0.34, 2.19, 1.64, 7.35, repro,
2004-10-11,-0.46, -0.99, 0.14, 2.19, 1.62, 7.29, repro,
2004-10-12,-0.50, -1.54, 0.53, 2.20, 1.62, 7.26, repro,
2004-10-13,-1.64, -1.83, 1.90, 2.20, 1.62, 7.29, repro,
2004-10-14,-1.72, -1.69, 4.35, 2.14, 1.58, 7.08, repro,
2004-10-15,-1.18, -3.09, 4.77, 2.20, 1.61, 7.24, repro,
2004-10-16,-0.13, -1.91, 0.60, 2.15, 1.58, 7.13, repro,
2004-10-17,-1.54, -2.66, 6.30, 2.25, 1.68, 7.52, repro,
2004-10-18,-1.10, -1.97, 4.27, 2.21, 1.62, 7.34, repro,
2004-10-19,-2.17, -2.80, 3.04, 2.22, 1.62, 7.23, repro,
2004-10-20,-2.18, -2.55, 6.67, 2.21, 1.62, 7.21, repro,
2004-10-21,-0.55, -1.93, 4.51, 2.20, 1.59, 7.18, repro,
2004-10-22,0.11, -1.87, 7.15, 2.20, 1.59, 7.20, repro,
2004-10-23,-0.61, -3.95, 6.18, 2.17, 1.58, 7.09, repro,
2004-10-24,-0.20, -2.39, 5.96, 2.17, 1.58, 7.11, repro,
2004-10-25,-0.44, -1.82, 5.13, 2.16, 1.60, 7.16, repro,
2004-10-26,-0.27, -1.85, 6.70, 2.37, 1.71, 7.75, repro,
2004-10-27,-1.57, -1.32, 7.23, 2.30, 1.65, 7.52, repro,
2004-10-28,-1.38, -0.86, -1.06, 2.18, 1.63, 7.31, repro,
2004-10-29,-0.78, -1.10, 5.79, 2.21, 1.61, 7.30, repro,
2004-10-30,-4.06, -1.68, 5.79, 2.25, 1.67, 7.39, repro,
2004-10-31,-1.77, -2.25, -3.05, 2.20, 1.62, 7.33, repro,
2004-11-01,-1.67, -1.14, -3.54, 2.23, 1.67, 7.49, repro,
2004-11-02,0.41, 0.47, -5.88, 2.18, 1.63, 7.21, repro,
2004-11-03,0.37, -2.13, -11.10, 2.19, 1.62, 7.20, repro,
2004-11-04,-3.03, -0.59, -6.05, 2.17, 1.59, 7.12, repro,
2004-11-05,-2.05, -1.33, 2.09, 2.28, 1.70, 7.50, repro,
2004-11-06,-1.51, -0.83, -1.41, 2.27, 1.70, 7.47, repro,
2004-11-07,-0.64, -0.37, -3.50, 2.18, 1.64, 7.31, repro,
2004-11-08,0.21, 0.21, -5.56, 2.50, 1.86, 8.52, repro,
2004-11-09,-0.03, -2.19, 2.08, 2.23, 1.66, 7.45, repro,
2004-11-10,-0.90, -0.91, -8.83, 2.23, 1.64, 7.39, repro,
2004-11-11,-1.60, -1.00, -13.77, 2.21, 1.64, 7.25, repro,
2004-11-12,-0.37, -1.75, -6.44, 2.24, 1.67, 7.44, repro,
2004-11-13,-0.78, -1.85, -2.27, 2.19, 1.64, 7.25, repro,
2004-11-14,-1.28, -1.67, -8.76, 2.21, 1.64, 7.28, repro,
2004-11-15,-2.56, -0.88, -0.60, 2.16, 1.60, 7.16, repro,
2004-11-16,-1.71, -1.66, -4.11, 2.20, 1.62, 7.25, repro,
2004-11-17,-1.44, -1.71, -2.72, 2.19, 1.62, 7.21, repro,
2004-11-18,-2.86, -1.53, 1.89, 2.18, 1.62, 7.26, repro,
2004-11-19,-1.06, -1.58, -1.42, 2.30, 1.74, 7.73, repro,
2004-11-20,-1.02, -0.93, -1.48, 2.19, 1.63, 7.23, repro,
2004-11-21,-1.67, -1.69, -8.29, 2.36, 1.76, 7.82, repro,
2004-11-22,-0.40, -1.61, -6.18, 2.34, 1.77, 7.97, repro,
2004-11-23,-0.50, -2.34, -0.11, 2.23, 1.64, 7.28, repro,
2004-11-24,-1.58, -1.38, 13.26, 2.22, 1.64, 7.29, repro,
2004-11-25,-0.48, -0.75, 7.37, 2.35, 1.78, 7.76, repro,
2004-11-26,-1.14, -2.01, -6.51, 2.19, 1.65, 7.37, repro,
2004-11-27,-1.03, -2.15, 4.00, 2.22, 1.71, 7.52, repro,
2004-11-28,-0.52, -1.24, -1.98, 2.16, 1.64, 7.29, repro,
2004-11-29,-1.26, -1.94, -2.65, 2.11, 1.57, 7.03, repro,
2004-11-30,-0.19, -3.10, -0.14, 2.12, 1.58, 7.04, repro,
2004-12-01,-0.25, -2.42, 0.90, 2.25, 1.64, 7.37, repro,
2004-12-02,-0.80, -0.54, -5.55, 2.20, 1.59, 7.17, repro,
2004-12-03,-0.66, -1.27, -4.38, 2.25, 1.67, 7.36, repro,
2004-12-04,0.20, -1.94, 1.62, 2.15, 1.62, 7.24, repro,
2004-12-05,0.70, -2.67, 5.72, 2.12, 1.57, 7.01, repro,
2004-12-06,0.71, -2.53, 10.59, 2.27, 1.68, 7.54, repro,
2004-12-07,-0.34, -1.61, 11.91, 2.23, 1.67, 7.41, repro,
2004-12-08,-1.91, -1.40, 12.93, 2.17, 1.59, 7.16, repro,
2004-12-09,0.26, -0.98, 4.41, 2.12, 1.59, 7.11, repro,
2004-12-10,-2.23, -1.95, 4.73, 2.26, 1.72, 7.57, repro,
2004-12-11,0.62, -0.14, -4.41, 2.19, 1.61, 7.26, repro,
2004-12-12,-0.70, -0.93, -5.78, 2.20, 1.60, 7.26, repro,
2004-12-13,-1.50, -1.16, 2.99, 2.24, 1.63, 7.29, repro,
2004-12-14,-1.27, -1.91, -6.10, 2.25, 1.65, 7.27, repro,
2004-12-15,-2.12, -1.19, -11.56, 2.26, 1.64, 7.25, repro,
2004-12-16,0.12, -1.28, -15.33, 2.20, 1.60, 7.27, repro,
2004-12-17,-0.58, -1.08, -14.49, 2.11, 1.56, 7.00, repro,
2004-12-18,0.38, -1.20, -8.65, 2.12, 1.58, 7.04, repro,
2004-12-19,-1.36, -1.62, -13.32, 2.09, 1.55, 6.94, repro,
2004-12-20,-0.67, -1.90, -12.09, 2.08, 1.55, 6.94, repro,
2004-12-21,-0.45, -2.09, -10.33, 2.14, 1.59, 7.14, repro,
2004-12-22,0.42, -1.82, -12.38, 2.17, 1.60, 7.28, repro,
2004-12-23,-0.34, -1.43, -8.57, 2.11, 1.55, 6.92, repro,
2004-12-24,-1.32, -1.34, -6.66, 2.12, 1.58, 7.02, repro,
2004-12-25,-1.13, -2.13, -0.77, 2.10, 1.56, 6.94, repro,
2004-12-26,-1.39, -2.77, 7.55, 2.21, 1.59, 7.12, repro,
2004-12-27,-1.16, -2.25, -6.59, 2.24, 1.61, 7.24, repro,
2004-12-28,-0.46, -2.52, -2.64, 2.30, 1.64, 7.36, repro,
2004-12-29,-0.62, -2.25, 4.17, 2.24, 1.59, 7.16, repro,
2004-12-30,-1.73, -1.55, 3.57, 2.29, 1.64, 7.27, repro,
2004-12-31,-0.91, -1.02, 0.38, 2.31, 1.67, 7.42, repro,
2005-01-01,2.41, -1.66, -1.20, 2.25, 1.60, 7.21, repro,
2005-01-02,-0.99, -1.92, -1.00, 2.30, 1.62, 7.23, repro,
2005-01-03,-0.72, -1.27, -6.21, 2.30, 1.61, 7.21, repro,
2005-01-04,-2.03, -1.36, -4.56, 2.28, 1.63, 7.29, repro,
2005-01-05,-1.93, -0.08, -7.82, 2.23, 1.59, 7.16, repro,
2005-01-06,1.17, -0.42, -0.98, 2.32, 1.69, 7.44, repro,
2005-01-07,0.95, -1.85, 2.37, 2.34, 1.69, 7.47, repro,
2005-01-08,-2.40, -1.44, 3.27, 2.24, 1.68, 7.36, repro,
2005-01-09,-0.25, -2.27, -8.58, 2.20, 1.64, 7.21, repro,
2005-01-10,-1.01, -0.40, -7.34, 2.26, 1.74, 7.67, repro,
2005-01-11,-0.34, -0.07, -4.39, 2.33, 1.81, 7.78, repro,
2005-01-12,1.45, -0.31, -8.81, 2.22, 1.67, 7.39, repro,
2005-01-13,1.38, 0.08, -11.60, 2.26, 1.72, 7.54, repro,
2005-01-14,0.38, -0.50, -19.69, 2.26, 1.70, 7.48, repro,
2005-01-15,-0.40, -2.10, -34.47, 2.38, 1.89, 8.16, repro,
2005-01-16,-1.58, -2.85, -30.18, 2.31, 1.69, 7.37, repro,
2005-01-17,1.38, 0.24, -12.08, 2.16, 1.58, 7.07, repro,
2005-01-18,2.03, 2.27, -11.51, 2.20, 1.63, 7.31, repro,
2005-01-19,2.58, 1.95, -11.41, 2.26, 1.64, 7.29, repro,
2005-01-20,1.57, -1.66, -11.55, 2.24, 1.67, 7.28, repro,
2005-01-21,-0.01, -0.70, -5.43, 2.23, 1.69, 7.50, repro,
2005-01-22,0.65, 0.13, -10.39, 2.20, 1.65, 7.34, repro,
2005-01-23,1.12, -0.35, -3.87, 2.14, 1.60, 7.09, repro,
2005-01-24,0.18, -0.85, -13.42, 2.14, 1.60, 7.10, repro,
2005-01-25,0.05, -0.43, -5.59, 2.23, 1.75, 7.69, repro,
2005-01-26,-1.39, -0.63, -6.46, 2.20, 1.62, 7.17, repro,
2005-01-27,0.72, -0.25, -2.19, 2.20, 1.65, 7.20, repro,
2005-01-28,-0.30, -1.75, -3.42, 2.23, 1.72, 7.45, repro,
2005-01-29,-0.04, 0.60, -2.57, 2.14, 1.56, 6.99, repro,
2005-01-30,-0.22, -0.03, -4.05, 2.15, 1.61, 7.16, repro,
2005-01-31,0.08, -0.02, -12.01, 2.20, 1.64, 7.28, repro,
2005-02-01,0.16, -0.62, -15.36, 2.15, 1.57, 7.06, repro,
2005-02-02,0.66, -0.10, -11.95, 2.15, 1.57, 7.05, repro,
2005-02-03,-0.52, 0.64, -8.39, 2.21, 1.58, 7.20, repro,
2005-02-04,0.81, 0.26, -6.51, 2.13, 1.55, 6.99, repro,
2005-02-05,1.70, -2.14, -6.26, 2.14, 1.55, 7.04, repro,
2005-02-06,2.85, -0.15, -4.38, 2.14, 1.55, 7.02, repro,
2005-02-07,1.78, -0.42, -6.87, 2.14, 1.55, 6.99, repro,
2005-02-08,0.35, -0.34, -9.11, 2.19, 1.59, 7.17, repro,
2005-02-09,-0.13, 0.68, -1.29, 2.18, 1.58, 7.15, repro,
2005-02-10,0.01, -0.37, -2.73, 2.13, 1.54, 6.96, repro,
2005-02-11,0.93, -0.75, -1.04, 2.16, 1.56, 7.07, repro,
2005-02-12,-0.06, -1.09, -5.39, 2.16, 1.54, 7.04, repro,
2005-02-13,-0.88, -1.75, 0.79, 2.15, 1.55, 7.01, repro,
2005-02-14,0.09, -0.56, -1.22, 2.14, 1.55, 7.00, repro,
2005-02-15,-0.96, -0.45, 0.66, 2.13, 1.55, 7.00, repro,
2005-02-16,0.89, -0.80, -8.55, 2.14, 1.55, 7.03, repro,
2005-02-17,0.38, -0.29, -4.07, 2.22, 1.57, 7.13, repro,
2005-02-18,0.94, -0.60, -3.59, 2.16, 1.56, 7.08, repro,
2005-02-19,1.14, -1.89, -2.24, 2.15, 1.55, 7.02, repro,
2005-02-20,0.60, -0.90, 0.53, 2.17, 1.56, 7.08, repro,
2005-02-21,0.05, -1.03, -2.71, 2.20, 1.60, 7.21, repro,
2005-02-22,-0.72, -0.75, -1.93, 2.14, 1.55, 7.02, repro,
2005-02-23,-0.07, -0.29, -2.13, 2.21, 1.57, 7.14, repro,
2005-02-24,0.03, -0.87, -1.27, 2.21, 1.56, 7.11, repro,
2005-02-25,0.16, -0.21, -4.61, 2.21, 1.56, 7.10, repro,
2005-02-26,-0.21, -0.58, -0.93, 2.23, 1.56, 7.12, repro,
2005-02-27,0.21, -0.93, -3.57, 2.19, 1.55, 7.07, repro,
2005-02-28,-0.08, -0.10, -1.49, 2.20, 1.56, 7.09, repro,
2005-03-01,0.10, -0.76, 0.62, 2.22, 1.57, 7.13, repro,
2005-03-02,-0.27, 0.25, 2.23, 2.23, 1.56, 7.09, repro,
2005-03-03,-0.53, -0.73, -2.92, 2.23, 1.56, 7.08, repro,
2005-03-04,0.28, -1.05, -1.19, 2.24, 1.55, 7.15, repro,
2005-03-05,2.33, -0.20, -6.91, 2.22, 1.57, 7.13, repro,
2005-03-06,1.82, -0.95, -9.39, 2.23, 1.59, 7.21, repro,
2005-03-07,0.53, 0.45, 2.03, 2.21, 1.56, 7.04, repro,
2005-03-08,-0.51, 0.09, -3.80, 2.21, 1.56, 7.04, repro,
2005-03-09,0.13, -0.08, -3.48, 2.25, 1.60, 7.23, repro,
2005-03-10,0.38, -0.09, -1.65, 2.21, 1.56, 7.12, repro,
2005-03-11,1.83, -1.19, -0.52, 2.22, 1.57, 7.13, repro,
2005-03-12,0.99, -0.90, 1.30, 2.23, 1.58, 7.21, repro,
2005-03-13,0.59, -1.70, -8.33, 2.22, 1.56, 7.11, repro,
2005-03-14,-0.80, -1.16, -1.06, 2.21, 1.55, 7.08, repro,
2005-03-15,1.22, -1.02, 4.39, 2.26, 1.59, 7.25, repro,
2005-03-16,0.94, -1.59, 0.56, 2.27, 1.62, 7.36, repro,
2005-03-17,1.36, -0.85, 2.39, 2.23, 1.57, 7.12, repro,
2005-03-18,2.06, -1.09, 1.85, 2.21, 1.56, 7.07, repro,
2005-03-19,-0.21, -1.50, 8.36, 2.23, 1.56, 7.14, repro,
2005-03-20,-2.71, -0.45, 10.20, 2.21, 1.57, 7.10, repro,
2005-03-21,2.40, 0.43, 1.62, 2.21, 1.57, 7.09, repro,
2005-03-22,1.51, -0.79, 1.23, 2.22, 1.56, 7.13, repro,
2005-03-23,2.28, -1.61, 7.41, 2.21, 1.56, 7.09, repro,
2005-03-24,0.34, -0.23, 7.52, 2.21, 1.54, 7.04, repro,
2005-03-25,-0.09, 0.20, -1.20, 2.22, 1.55, 7.10, repro,
2005-03-26,-0.35, -0.28, 6.91, 2.22, 1.56, 7.08, repro,
2005-03-27,1.36, -0.01, 3.57, 2.22, 1.57, 7.14, repro,
2005-03-28,0.71, -0.75, 7.83, 2.22, 1.58, 7.13, repro,
2005-03-29,0.44, -1.80, 4.94, 2.28, 1.61, 7.23, repro,
2005-03-30,0.11, -0.51, 10.14, 2.23, 1.57, 7.11, repro,
2005-03-31,-0.11, -1.20, 2.96, 2.28, 1.59, 7.34, repro,
2005-04-22,-2.23, -0.81, 3.47, 4.70, 3.33, 14.31, repro,
2005-04-27,-0.09, -1.19, -0.13, 5.50, 3.91, 17.58, repro,
2005-05-12,0.48, -0.33, -0.89, 2.41, 1.77, 7.87, repro,
2005-05-13,0.65, -1.28, -3.54, 2.37, 1.67, 7.54, repro,
2005-05-14,1.51, -0.11, 2.75, 2.30, 1.66, 7.43, repro,
2005-05-15,-0.36, -1.15, -2.59, 2.28, 1.63, 7.39, repro,
2005-05-16,-0.13, -0.34, 11.70, 2.26, 1.62, 7.29, repro,
2005-05-17,2.72, -1.37, 11.39, 2.36, 1.63, 7.43, repro,
2005-05-18,-1.48, -0.13, 2.71, 2.34, 1.64, 7.44, repro,
2005-05-19,-0.83, 1.07, -4.47, 2.28, 1.63, 7.38, repro,
2005-05-20,0.01, 0.61, -3.82, 2.22, 1.60, 7.17, repro,
2005-05-21,2.20, 0.64, -4.67, 2.25, 1.61, 7.26, repro,
2005-05-22,0.09, 0.33, -4.43, 2.25, 1.61, 7.23, repro,
2005-05-23,1.53, -0.10, -3.47, 2.25, 1.61, 7.27, repro,
2005-05-24,-0.18, -0.05, -2.93, 2.25, 1.62, 7.28, repro,
2005-05-25,-0.03, -0.98, -5.21, 2.26, 1.61, 7.25, repro,
2005-05-26,-0.10, -0.55, -0.44, 2.22, 1.62, 7.21, repro,
2005-05-27,1.70, -0.48, 1.15, 2.25, 1.61, 7.27, repro,
2005-05-28,2.11, -1.59, 6.28, 2.27, 1.61, 7.33, repro,
2005-05-29,0.13, -1.63, 1.57, 2.27, 1.61, 7.35, repro,
2005-05-30,-0.72, -1.07, 3.24, 2.27, 1.62, 7.33, repro,
2005-05-31,0.14, -1.06, 1.66, 2.25, 1.61, 7.30, repro,
2005-06-01,0.10, -0.61, -4.53, 2.24, 1.57, 7.16, repro,
2005-06-02,-0.18, -0.65, 0.99, 2.22, 1.55, 7.07, repro,
2005-06-03,1.42, -0.72, 3.20, 2.24, 1.57, 7.16, repro,
2005-06-04,0.08, -0.57, 1.71, 2.25, 1.56, 7.14, repro,
2005-06-05,0.24, -1.18, 6.41, 2.25, 1.56, 7.16, repro,
2005-06-06,1.00, -0.24, 6.32, 2.20, 1.55, 7.02, repro,
2005-06-07,1.98, 0.66, 2.12, 2.21, 1.55, 7.05, repro,
2005-06-08,1.27, -0.96, 2.82, 2.23, 1.57, 7.16, repro,
2005-06-09,0.88, -0.74, 2.85, 2.27, 1.60, 7.31, repro,
2005-06-10,-0.27, -0.93, 1.75, 2.29, 1.61, 7.32, repro,
2005-06-11,-0.93, -2.58, 2.14, 2.27, 1.60, 7.29, repro,
2005-06-12,1.00, -1.65, 1.02, 2.27, 1.61, 7.27, repro,
2005-06-13,-0.97, -0.61, 3.69, 2.30, 1.61, 7.36, repro,
2005-06-14,0.97, -0.98, 3.90, 2.27, 1.61, 7.31, repro,
2005-06-15,1.06, 0.66, 2.63, 2.25, 1.59, 7.19, repro,
2005-06-16,1.13, 1.09, 0.47, 2.30, 1.57, 7.18, repro,
2005-06-17,-0.32, 0.34, 8.06, 2.37, 1.63, 7.39, repro,
2005-06-18,-0.79, 0.89, 6.03, 2.22, 1.56, 7.09, repro,
2005-06-19,-0.41, 0.35, 2.39, 2.24, 1.57, 7.17, repro,
2005-06-20,-0.69, 0.65, -2.12, 2.25, 1.57, 7.19, repro,
2005-06-21,-1.44, 0.01, -2.14, 2.25, 1.59, 7.22, repro,
2005-06-22,-0.55, -0.38, -5.04, 2.21, 1.56, 7.11, repro,
2005-06-23,0.31, 0.18, -0.10, 2.22, 1.56, 7.14, repro,
2005-06-24,-0.02, -0.58, 5.54, 2.24, 1.55, 7.11, repro,
2005-06-25,0.45, 0.85, 5.62, 2.25, 1.57, 7.16, repro,
2005-06-26,0.42, 1.05, 4.57, 2.30, 1.60, 7.28, repro,
2005-06-27,1.94, 0.48, 6.77, 2.21, 1.56, 7.05, repro,
2005-06-28,0.01, -0.39, 5.03, 2.21, 1.56, 7.11, repro,
2005-06-29,0.79, -0.42, 3.01, 2.22, 1.55, 7.10, repro,
2005-06-30,1.42, -0.58, 3.63, 2.22, 1.55, 7.09, repro,
2005-07-01,-0.16, -1.21, 4.54, 2.23, 1.56, 7.09, repro,
2005-07-02,-1.38, 0.11, -0.95, 2.21, 1.56, 7.04, repro,
2005-07-03,-0.36, 0.78, 6.97, 2.22, 1.55, 7.08, repro,
2005-07-04,0.77, 0.10, 5.51, 2.22, 1.56, 7.12, repro,
2005-07-05,-0.58, -0.81, 4.36, 2.25, 1.56, 7.18, repro,
2005-07-06,-1.66, -2.00, 8.74, 2.27, 1.57, 7.25, repro,
2005-07-07,-1.50, -0.05, 1.83, 2.28, 1.59, 7.17, repro,
2005-07-08,0.39, 1.01, 8.11, 2.22, 1.56, 7.07, repro,
2005-07-09,0.90, 0.12, 8.11, 2.21, 1.57, 7.09, repro,
2005-07-10,-0.26, 0.05, 8.55, 2.27, 1.62, 7.28, repro,
2005-07-11,-0.35, -1.70, 12.06, 2.24, 1.57, 7.19, repro,
2005-07-12,-0.69, -0.90, 7.38, 2.21, 1.56, 7.06, repro,
2005-07-13,-0.24, -0.10, 2.14, 2.23, 1.57, 7.08, repro,
2005-07-14,-0.31, 1.10, 1.45, 2.23, 1.60, 7.19, repro,
2005-07-15,0.51, -0.32, 7.53, 2.21, 1.57, 7.11, repro,
2005-07-16,-0.08, 1.75, 11.43, 2.26, 1.58, 7.26, repro,
2005-07-17,-0.85, -0.01, 0.67, 2.22, 1.58, 7.21, repro,
2005-07-18,0.71, 0.42, 7.56, 2.22, 1.56, 7.09, repro,
2005-07-19,0.50, 0.11, 13.68, 2.24, 1.56, 7.11, repro,
2005-07-20,0.35, 0.22, 5.28, 2.23, 1.56, 7.08, repro,
2005-07-21,-1.24, 0.53, 5.02, 2.24, 1.58, 7.22, repro,
2005-07-22,1.85, 0.76, 3.48, 2.27, 1.60, 7.42, repro,
2005-07-23,0.21, 1.09, 9.46, 2.22, 1.56, 7.10, repro,
2005-07-24,1.21, 1.41, 7.60, 2.25, 1.59, 7.25, repro,
2005-07-25,-0.15, 1.11, 8.87, 2.26, 1.60, 7.30, repro,
2005-07-26,-0.42, 0.10, 10.57, 2.27, 1.66, 7.49, repro,
2005-07-27,-1.02, 0.04, 7.89, 2.31, 1.67, 7.54, repro,
2005-07-28,0.23, -0.51, 8.40, 2.28, 1.67, 7.47, repro,
2005-07-29,1.27, 0.37, 7.02, 2.26, 1.59, 7.30, repro,
2005-07-30,1.40, 0.90, 6.56, 2.26, 1.60, 7.31, repro,
2005-07-31,0.04, 1.35, 1.86, 2.25, 1.61, 7.33, repro,
2005-08-01,-0.03, -0.39, 3.70, 2.26, 1.61, 7.36, repro,
2005-08-02,0.51, 1.54, 6.84, 2.25, 1.60, 7.28, repro,
2005-08-03,0.32, 0.01, 6.37, 2.22, 1.56, 7.11, repro,
2005-08-04,0.24, 0.58, 13.38, 2.23, 1.56, 7.13, repro,
2005-08-05,2.11, 0.40, 7.61, 2.24, 1.57, 7.17, repro,
2005-08-06,1.03, 0.87, 8.00, 2.22, 1.57, 7.10, repro,
2005-08-07,0.07, -0.39, 8.45, 2.22, 1.56, 7.12, repro,
2005-08-08,0.76, 0.33, 7.06, 2.21, 1.56, 7.13, repro,
2005-08-09,2.52, 0.75, 7.98, 2.23, 1.57, 7.14, repro,
2005-08-10,0.25, 0.11, 9.94, 2.24, 1.57, 7.17, repro,
2005-08-11,0.42, 1.71, 8.46, 2.33, 1.69, 7.52, repro,
2005-08-12,1.09, 1.85, 6.37, 2.31, 1.67, 7.43, repro,
2005-08-13,-0.83, 0.45, 0.75, 2.26, 1.61, 7.25, repro,
2005-08-14,0.68, 0.42, 10.23, 2.27, 1.62, 7.31, repro,
2005-08-15,0.56, 0.53, 9.66, 2.29, 1.62, 7.36, repro,
2005-08-16,1.57, 1.05, 11.40, 2.30, 1.63, 7.35, repro,
2005-08-17,2.44, 0.24, 1.41, 2.30, 1.63, 7.39, repro,
2005-08-18,0.09, 0.64, 9.02, 2.23, 1.57, 7.15, repro,
2005-08-19,1.39, 0.23, 7.64, 2.24, 1.58, 7.24, repro,
2005-08-20,1.58, -0.28, 14.73, 2.24, 1.58, 7.19, repro,
2005-08-21,1.38, 1.61, 13.55, 2.23, 1.57, 7.17, repro,
2005-08-22,1.87, 1.07, 10.43, 2.22, 1.57, 7.21, repro,
2005-08-23,1.25, 1.03, 11.99, 2.24, 1.57, 7.14, repro,
2005-08-24,0.30, -0.03, 5.55, 2.23, 1.56, 7.13, repro,
2005-08-25,0.31, 0.55, 12.17, 2.29, 1.62, 7.39, repro,
2005-08-26,0.12, -0.33, 20.02, 2.23, 1.57, 7.18, repro,
2005-08-27,2.40, 0.46, 14.49, 2.24, 1.57, 7.15, repro,
2005-08-28,0.23, 0.04, 9.02, 2.20, 1.56, 7.08, repro,
2005-08-29,1.34, 1.16, 12.66, 2.28, 1.63, 7.39, repro,
2005-08-30,2.72, 0.59, 4.76, 2.27, 1.62, 7.32, repro,
2005-08-31,2.24, 1.56, 4.15, 2.28, 1.62, 7.34, repro,
2005-09-01,-0.68, 0.13, 15.46, 2.22, 1.56, 7.13, repro,
2005-09-02,0.76, 0.58, 13.36, 2.22, 1.57, 7.13, repro,
2005-09-03,0.15, 0.58, 14.75, 2.21, 1.56, 7.08, repro,
2005-09-04,1.11, 0.35, 11.97, 2.28, 1.62, 7.35, repro,
2005-09-05,1.84, 0.89, 7.57, 2.25, 1.56, 7.16, repro,
2005-09-06,1.59, -0.15, 11.90, 2.23, 1.57, 7.18, repro,
2005-09-07,0.28, 0.75, 6.50, 2.31, 1.58, 7.24, repro,
2005-09-08,1.18, 0.81, 2.81, 2.28, 1.57, 7.19, repro,
2005-09-09,0.49, 0.64, 12.08, 2.28, 1.58, 7.23, repro,
2005-09-10,1.61, 0.61, 13.13, 2.30, 1.57, 7.19, repro,
2005-09-11,1.66, 1.12, 16.34, 2.30, 1.59, 7.24, repro,
2005-09-12,1.26, 0.41, 6.99, 2.31, 1.58, 7.25, repro,
2005-09-13,0.73, 2.19, 11.57, 2.39, 1.66, 7.47, repro,
2005-09-14,0.91, 0.28, 10.17, 2.31, 1.62, 7.33, repro,
2005-09-15,0.61, 0.88, 11.13, 2.34, 1.62, 7.39, repro,
2005-09-16,0.90, -0.03, 14.72, 2.32, 1.62, 7.31, repro,
2005-09-17,-0.26, 0.33, 11.34, 2.21, 1.56, 7.14, repro,
2005-09-18,0.68, 0.74, 9.81, 2.21, 1.55, 7.09, repro,
2005-09-19,2.37, -0.53, 9.55, 2.28, 1.57, 7.30, repro,
2005-09-20,1.20, 0.53, 8.03, 2.22, 1.56, 7.14, repro,
2005-09-21,-0.56, -0.02, 7.41, 2.25, 1.59, 7.34, repro,
2005-09-22,1.81, 0.38, 7.80, 2.21, 1.56, 7.14, repro,
2005-09-23,1.31, -0.00, 10.14, 2.24, 1.61, 7.33, repro,
2005-09-24,1.09, 0.05, 6.72, 2.25, 1.60, 7.25, repro,
2005-09-25,0.43, -0.01, 8.59, 2.25, 1.60, 7.26, repro,
2005-09-26,1.49, -0.19, 14.96, 2.25, 1.59, 7.24, repro,
2005-09-27,0.73, -0.34, 10.32, 2.27, 1.61, 7.31, repro,
2005-09-28,1.70, 0.20, 13.61, 2.28, 1.58, 7.21, repro,
2005-09-29,0.44, 0.70, 21.98, 2.30, 1.59, 7.25, repro,
2005-09-30,1.34, 1.09, 21.03, 2.25, 1.58, 7.21, repro,
2005-10-01,0.45, -0.32, 14.36, 2.23, 1.57, 7.20, repro,
2005-10-02,2.06, 0.06, 9.79, 2.28, 1.61, 7.37, repro,
2005-10-03,2.13, 0.18, 12.48, 2.25, 1.59, 7.18, repro,
2005-10-04,1.37, 0.66, 5.18, 2.32, 1.64, 7.50, repro,
2005-10-05,2.76, 0.33, 5.93, 2.29, 1.59, 7.37, repro,
2005-10-06,0.10, -0.57, 13.83, 2.22, 1.56, 7.13, repro,
2005-10-07,0.29, -0.42, 11.39, 2.22, 1.56, 7.11, repro,
2005-10-08,1.48, 1.28, 14.75, 2.22, 1.56, 7.10, repro,
2005-10-09,1.41, 0.98, 13.05, 2.20, 1.55, 7.02, repro,
2005-10-10,0.57, 0.54, 12.22, 2.23, 1.56, 7.10, repro,
2005-10-11,-0.22, 0.55, 11.02, 2.27, 1.60, 7.26, repro,
2005-10-12,-0.12, 0.25, 4.94, 2.26, 1.61, 7.25, repro,
2005-10-13,1.43, 1.17, 11.42, 2.24, 1.61, 7.29, repro,
2005-10-14,1.90, 0.26, 10.07, 2.24, 1.57, 7.14, repro,
2005-10-15,-0.17, 0.52, 13.95, 2.24, 1.56, 7.15, repro,
2005-10-16,-0.13, 0.35, 10.05, 2.29, 1.57, 7.45, repro,
2005-10-17,-0.80, 0.09, 15.74, 2.24, 1.58, 7.20, repro,
2005-10-18,1.04, 0.25, 6.17, 2.31, 1.67, 7.46, repro,
2005-10-19,1.77, 1.56, 5.19, 2.32, 1.64, 7.45, repro,
2005-10-20,2.71, 1.61, 12.14, 2.32, 1.59, 7.25, repro,
2005-10-21,2.10, 1.61, 8.87, 2.26, 1.59, 7.29, repro,
2005-10-22,1.11, -0.05, 5.83, 2.23, 1.56, 7.12, repro,
2005-10-23,1.00, -0.45, 6.10, 2.22, 1.57, 7.13, repro,
2005-10-24,2.23, 1.04, 8.41, 2.26, 1.60, 7.25, repro,
2005-10-25,2.51, 0.10, 9.63, 2.33, 1.66, 7.47, repro,
2005-10-26,4.29, 0.28, 14.12, 2.34, 1.66, 7.49, repro,
2005-10-27,2.58, 0.40, 12.18, 2.27, 1.60, 7.22, repro,
2005-10-28,-1.24, 0.78, 19.08, 2.25, 1.58, 7.24, repro,
2005-10-29,0.52, 0.85, 12.27, 2.24, 1.61, 7.31, repro,
2005-10-30,2.86, 1.21, 3.45, 2.22, 1.55, 7.13, repro,
2005-10-31,3.29, 2.71, 7.42, 2.35, 1.65, 7.48, repro,
2005-11-01,1.02, 0.73, 6.55, 2.35, 1.65, 7.43, repro,
2005-11-02,3.24, 0.93, 9.81, 2.36, 1.72, 7.65, repro,
2005-11-03,1.52, 1.20, 11.40, 2.27, 1.63, 7.35, repro,
2005-11-04,1.93, 3.33, 10.41, 2.35, 1.68, 7.58, repro,
2005-11-05,4.21, 3.25, 7.62, 2.39, 1.74, 7.72, repro,
2005-11-06,0.43, 1.67, 12.23, 2.35, 1.68, 7.55, repro,
2005-11-07,2.55, -0.24, 4.00, 2.35, 1.73, 7.62, repro,
2005-11-08,2.35, 2.19, -2.65, 2.32, 1.69, 7.49, repro,
2005-11-09,2.62, 1.08, -3.26, 2.42, 1.78, 7.90, repro,
2005-11-10,3.44, 1.36, 1.31, 2.63, 1.87, 8.39, repro,
2005-11-11,2.05, 0.89, 8.19, 2.41, 1.69, 7.73, repro,
2005-11-12,1.39, 1.09, 11.75, 2.21, 1.61, 7.10, repro,
2005-11-13,1.94, 2.77, 2.24, 2.39, 1.74, 7.66, repro,
2005-11-14,2.32, -1.91, -2.65, 2.28, 1.63, 7.38, repro,
2005-11-15,2.50, 2.19, -9.58, 2.21, 1.56, 7.17, repro,
2005-11-16,2.59, 1.26, -8.87, 2.31, 1.64, 7.45, repro,
2005-11-17,1.25, 2.10, -6.30, 2.20, 1.55, 7.07, repro,
2005-11-18,-0.16, 0.63, -3.30, 2.20, 1.55, 7.09, repro,
2005-11-19,1.07, 0.92, -3.35, 2.22, 1.57, 7.19, repro,
2005-11-20,1.70, 1.10, -4.69, 2.24, 1.59, 7.32, repro,
2005-11-21,0.80, 0.82, -4.92, 2.32, 1.64, 7.52, repro,
2005-11-22,1.52, 1.49, 0.78, 2.31, 1.66, 7.48, repro,
2005-11-23,0.67, -0.40, 1.32, 2.26, 1.59, 7.32, repro,
2005-11-24,-0.68, -1.23, 7.82, 2.23, 1.57, 7.18, repro,
2005-11-25,-0.33, -1.51, 8.51, 2.23, 1.60, 7.28, repro,
2005-11-26,-0.03, -0.69, 4.59, 2.29, 1.64, 7.51, repro,
2005-11-27,0.10, -1.40, 0.94, 2.23, 1.58, 7.21, repro,
2005-11-28,-0.53, -1.06, -5.99, 2.27, 1.61, 7.35, repro,
2005-11-29,0.21, -1.57, 3.61, 2.23, 1.58, 7.19, repro,
2005-11-30,0.25, -1.12, 1.87, 2.23, 1.60, 7.25, repro,
2005-12-01,-0.41, -2.27, 5.10, 2.21, 1.58, 7.18, repro,
2005-12-02,-1.32, -0.45, -3.26, 2.24, 1.58, 7.21, repro,
2005-12-03,-1.04, -0.98, 1.55, 2.22, 1.57, 7.13, repro,
2005-12-04,-0.33, -1.00, -8.17, 2.22, 1.55, 7.09, repro,
2005-12-05,-1.32, -0.91, -7.92, 2.22, 1.58, 7.16, repro,
2005-12-06,-1.15, -1.00, -3.24, 2.21, 1.56, 7.12, repro,
2005-12-07,-1.35, -0.58, 0.05, 2.26, 1.62, 7.32, repro,
2005-12-08,-2.42, -1.24, 2.38, 2.25, 1.61, 7.30, repro,
2005-12-09,-1.31, -0.88, -0.16, 2.23, 1.57, 7.15, repro,
2005-12-10,-1.35, -1.10, -2.16, 2.23, 1.58, 7.17, repro,
2005-12-11,-1.22, -1.06, 2.29, 2.21, 1.55, 7.13, repro,
2005-12-12,-2.93, -1.47, 4.22, 2.23, 1.56, 7.14, repro,
2005-12-13,-2.72, -1.10, 3.37, 2.21, 1.55, 7.12, repro,
2005-12-14,-1.16, -1.65, -7.53, 2.26, 1.61, 7.30, repro,
2005-12-15,-0.57, -1.99, -6.89, 2.33, 1.64, 7.49, repro,
2005-12-16,-1.74, -1.97, -4.38, 2.22, 1.55, 7.13, repro,
2005-12-17,-1.48, -1.32, 1.50, 2.29, 1.63, 7.33, repro,
2005-12-18,-2.36, -1.82, -1.46, 2.22, 1.60, 7.19, repro,
2005-12-19,-2.88, -1.73, -6.22, 2.43, 1.74, 7.77, repro,
2005-12-20,-1.28, -1.64, -3.39, 2.28, 1.66, 7.33, repro,
2005-12-21,-2.72, -2.32, 7.31, 2.26, 1.67, 7.33, repro,
2005-12-22,-2.49, -1.86, 9.26, 2.29, 1.67, 7.37, repro,
2005-12-23,-0.56, -0.84, -8.09, 2.36, 1.69, 7.53, repro,
2005-12-24,-2.21, -0.37, 1.08, 2.40, 1.73, 7.77, repro,
2005-12-25,-2.31, -2.78, 3.86, 2.28, 1.64, 7.30, repro,
2005-12-26,-0.51, -3.48, 4.92, 2.25, 1.60, 7.12, repro,
2005-12-27,-2.67, -1.42, 4.95, 2.30, 1.69, 7.45, repro,
2005-12-28,-0.87, -0.33, 1.48, 2.28, 1.64, 7.26, repro,
2005-12-29,-1.10, 0.66, 7.44, 2.39, 1.72, 7.77, repro,
2005-12-30,-1.55, -0.95, 7.12, 2.37, 1.73, 7.71, repro,
2005-12-31,-3.58, -3.35, 2.44, 2.39, 1.76, 7.80, repro,
2006-01-01,-2.27, -1.04, 8.73, 2.38, 1.73, 7.74, repro,
2006-01-02,0.35, -0.28, 4.96, 2.29, 1.65, 7.22, repro,
2006-01-03,-0.69, 0.41, -0.81, 2.49, 1.87, 8.21, repro,
2006-01-04,-1.37, 0.14, -5.54, 2.38, 1.78, 7.67, repro,
2006-01-05,-1.71, -0.85, -5.43, 2.32, 1.70, 7.55, repro,
2006-01-06,0.63, -0.84, -5.20, 2.39, 1.78, 7.96, repro,
2006-01-07,0.54, -0.33, -0.90, 2.33, 1.72, 7.47, repro,
2006-01-08,-0.93, 0.38, -0.15, 2.30, 1.70, 7.47, repro,
2006-01-09,0.32, 0.23, -2.35, 2.34, 1.74, 7.71, repro,
2006-01-10,-2.50, 1.69, -2.38, 2.37, 1.77, 7.80, repro,
2006-01-11,1.10, -0.56, 3.30, 2.34, 1.70, 7.53, repro,
2006-01-12,0.55, -0.15, -0.01, 2.32, 1.71, 7.44, repro,